When you browse on this site, cookies collect data to enhance your experience and personalize the content and advertising you see.
Visit our Privacy Policy to learn more. By continuing to use the site, you agree to this use of cookies and data.
  • En España
  • Lista de países
  • Para 7 días
  • Temperatura del agua
  • El tiempo en el mapa
  • Informadores
  • user-avatar
    Iniciar sesión

    Tiempo cada hora Trowbridge

    Hoy, 17 Septiembre, Martes

    Tiempo Temperatura Precipitaciones Viento Presión Humedad
    00:00 +13°C° 0 mm 2 mps 764 mmHg 86%
    01:00 +12°C° 0 mm 2 mps 764 mmHg 87%
    02:00 +12°C° 0 mm 2 mps 764 mmHg 88%
    03:00 +10°C° 0 mm 2 mps 763 mmHg 89%
    04:00 +9°C° 0 mm 2 mps 764 mmHg 90%
    05:00 +9°C° 0 mm 2 mps 764 mmHg 91%
    06:00 +8°C° 0 mm 2 mps 764 mmHg 92%
    07:00 +10°C° 0 mm 3 mps 765 mmHg 86%
    08:00 +12°C° 0 mm 3 mps 765 mmHg 80%
    09:00 +13°C° 0 mm 4 mps 765 mmHg 74%
    10:00 +14°C° 0 mm 4 mps 765 mmHg 70%
    11:00 +15°C° 0 mm 4 mps 765 mmHg 67%
    12:00 +16°C° 0 mm 5 mps 765 mmHg 63%
    13:00 +18°C° 0 mm 4 mps 765 mmHg 62%
    14:00 +18°C° 0 mm 4 mps 765 mmHg 61%
    15:00 +18°C° 0 mm 4 mps 765 mmHg 59%
    16:00 +17°C° 0 mm 3 mps 765 mmHg 64%
    17:00 +16°C° 0 mm 3 mps 765 mmHg 69%
    18:00 +14°C° 0 mm 3 mps 765 mmHg 74%
    19:00 +13°C° 0 mm 3 mps 766 mmHg 76%
    20:00 +12°C° 0 mm 3 mps 766 mmHg 79%
    21:00 +12°C° 0 mm 2 mps 767 mmHg 82%
    22:00 +10°C° 0 mm 2 mps 767 mmHg 83%
    23:00 +9°C° 0 mm 2 mps 767 mmHg 85%

    Mañana, 18 Septiembre, Miércoles

    Tiempo Temperatura Precipitaciones Viento Presión Humedad
    00:00 +8°C° 0 mm 2 mps 767 mmHg 86%
    01:00 +8°C° 0 mm 2 mps 767 mmHg 86%
    02:00 +8°C° 0 mm 2 mps 767 mmHg 86%
    03:00 +7°C° 0 mm 2 mps 768 mmHg 86%
    04:00 +7°C° 0 mm 2 mps 768 mmHg 85%
    05:00 +7°C° 0 mm 2 mps 768 mmHg 85%
    06:00 +7°C° 0 mm 1 mps 768 mmHg 84%
    07:00 +8°C° 0 mm 2 mps 768 mmHg 77%
    08:00 +10°C° 0 mm 2 mps 769 mmHg 70%
    09:00 +13°C° 0 mm 2 mps 769 mmHg 64%
    10:00 +14°C° 0 mm 2 mps 769 mmHg 59%
    11:00 +16°C° 0 mm 3 mps 769 mmHg 55%
    12:00 +17°C° 0 mm 3 mps 768 mmHg 51%
    13:00 +17°C° 0 mm 2 mps 768 mmHg 50%
    14:00 +18°C° 0 mm 2 mps 768 mmHg 50%
    15:00 +18°C° 0 mm 2 mps 768 mmHg 50%
    16:00 +17°C° 0 mm 2 mps 768 mmHg 56%
    17:00 +16°C° 0 mm 2 mps 768 mmHg 62%
    18:00 +14°C° 0 mm 2 mps 768 mmHg 68%
    19:00 +14°C° 0 mm 2 mps 768 mmHg 70%
    20:00 +13°C° 0 mm 1 mps 769 mmHg 72%
    21:00 +12°C° 0 mm 1 mps 769 mmHg 74%
    22:00 +11°C° 0 mm 1 mps 769 mmHg 75%
    23:00 +11°C° 0 mm 1 mps 769 mmHg 75%

    Pasado mañana, 19 Septiembre, Jueves

    Tiempo Temperatura Precipitaciones Viento Presión Humedad
    00:00 +11°C° 0 mm 1 mps 769 mmHg 76%
    01:00 +11°C° 0 mm 1 mps 769 mmHg 78%
    02:00 +10°C° 0 mm 1 mps 769 mmHg 80%
    03:00 +9°C° 0 mm 0 mps 769 mmHg 82%
    04:00 +10°C° 0 mm 1 mps 769 mmHg 83%
    05:00 +9°C° 0 mm 1 mps 769 mmHg 83%
    06:00 +9°C° 0 mm 1 mps 769 mmHg 84%
    07:00 +11°C° 0 mm 1 mps 769 mmHg 78%
    08:00 +13°C° 0 mm 1 mps 770 mmHg 72%
    09:00 +15°C° 0 mm 1 mps 770 mmHg 66%
    10:00 +18°C° 0 mm 1 mps 770 mmHg 62%
    11:00 +19°C° 0 mm 1 mps 770 mmHg 59%
    12:00 +21°C° 0 mm 1 mps 770 mmHg 55%
    13:00 +21°C° 0 mm 1 mps 769 mmHg 55%
    14:00 +21°C° 0 mm 1 mps 769 mmHg 55%
    15:00 +22°C° 0 mm 1 mps 769 mmHg 54%
    16:00 +20°C° 0 mm 1 mps 768 mmHg 60%
    17:00 +19°C° 0 mm 1 mps 768 mmHg 66%
    18:00 +16°C° 0 mm 1 mps 768 mmHg 72%
    19:00 +15°C° 0 mm 1 mps 768 mmHg 75%
    20:00 +14°C° 0 mm 1 mps 768 mmHg 78%
    21:00 +14°C° 0 mm 1 mps 769 mmHg 81%
    22:00 +13°C° 0 mm 1 mps 768 mmHg 83%
    23:00 +13°C° 0 mm 2 mps 768 mmHg 84%

    20 Septiembre, Viernes

    Tiempo Temperatura Precipitaciones Viento Presión Humedad
    00:00 +12°C° 0 mm 2 mps 768 mmHg 86%
    01:00 +12°C° 0 mm 2 mps 768 mmHg 87%
    02:00 +10°C° 0 mm 2 mps 768 mmHg 88%
    03:00 +10°C° 0 mm 2 mps 767 mmHg 89%
    04:00 +10°C° 0 mm 2 mps 767 mmHg 91%
    05:00 +10°C° 0 mm 2 mps 767 mmHg 92%
    06:00 +9°C° 0 mm 2 mps 766 mmHg 93%
    07:00 +11°C° 0 mm 3 mps 766 mmHg 85%
    08:00 +13°C° 0 mm 4 mps 766 mmHg 76%
    09:00 +15°C° 0 mm 5 mps 766 mmHg 68%
    10:00 +16°C° 0 mm 5 mps 766 mmHg 62%
    11:00 +17°C° 0 mm 5 mps 765 mmHg 57%
    12:00 +19°C° 0 mm 6 mps 765 mmHg 52%
    13:00 +20°C° 0 mm 6 mps 764 mmHg 49%
    14:00 +20°C° 0 mm 6 mps 763 mmHg 47%
    15:00 +20°C° 0 mm 6 mps 762 mmHg 45%
    16:00 +19°C° 0 mm 5 mps 762 mmHg 49%
    17:00 +16°C° 0 mm 5 mps 761 mmHg 52%
    18:00 +14°C° 0 mm 4 mps 761 mmHg 56%
    19:00 +14°C° 0 mm 5 mps 761 mmHg 56%
    20:00 +14°C° 0 mm 5 mps 760 mmHg 56%
    21:00 +13°C° 0 mm 6 mps 760 mmHg 55%
    22:00 +13°C° 0 mm 5 mps 759 mmHg 59%
    23:00 +13°C° 0 mm 5 mps 759 mmHg 63%

    21 Septiembre, Sábado

    Tiempo Temperatura Precipitaciones Viento Presión Humedad
    00:00 +13°C° 0 mm 5 mps 758 mmHg 67%
    01:00 +12°C° 0 mm 5 mps 758 mmHg 70%
    02:00 +12°C° 0 mm 5 mps 757 mmHg 73%
    03:00 +12°C° 0 mm 4 mps 757 mmHg 75%
    04:00 +12°C° 0 mm 4 mps 756 mmHg 77%
    05:00 +11°C° 0 mm 4 mps 756 mmHg 79%
    06:00 +11°C° 0 mm 4 mps 756 mmHg 81%
    07:00 +13°C° 0 mm 5 mps 755 mmHg 76%
    08:00 +15°C° 0 mm 5 mps 755 mmHg 71%
    09:00 +17°C° 0 mm 6 mps 755 mmHg 67%
    10:00 +19°C° 0 mm 6 mps 754 mmHg 64%
    11:00 +20°C° 0 mm 6 mps 754 mmHg 62%
    12:00 +22°C° 0 mm 6 mps 754 mmHg 60%
    13:00 +22°C° 0.1 mm 6 mps 753 mmHg 63%
    14:00 +22°C° 0.1 mm 6 mps 753 mmHg 66%
    15:00 +22°C° 0.1 mm 6 mps 752 mmHg 69%
    16:00 +21°C° 0.6 mm 5 mps 752 mmHg 76%
    17:00 +20°C° 0.6 mm 4 mps 752 mmHg 82%
    18:00 +18°C° 0.6 mm 3 mps 751 mmHg 89%
    19:00 +18°C° 0.7 mm 3 mps 751 mmHg 91%
    20:00 +18°C° 0.7 mm 4 mps 752 mmHg 93%
    21:00 +17°C° 0.7 mm 4 mps 752 mmHg 95%
    22:00 +17°C° 0 mm 4 mps 752 mmHg 95%
    23:00 +15°C° 0 mm 4 mps 752 mmHg 95%

    22 Septiembre, Domingo

    Tiempo Temperatura Precipitaciones Viento Presión Humedad
    00:00 +15°C° 0 mm 4 mps 752 mmHg 96%
    01:00 +15°C° 0 mm 4 mps 751 mmHg 96%
    02:00 +15°C° 0 mm 4 mps 751 mmHg 96%
    03:00 +15°C° 0 mm 4 mps 751 mmHg 96%
    04:00 +16°C° 0.7 mm 5 mps 751 mmHg 95%
    05:00 +16°C° 0.7 mm 5 mps 751 mmHg 95%
    06:00 +16°C° 0.7 mm 6 mps 752 mmHg 94%
    07:00 +16°C° 0.2 mm 5 mps 752 mmHg 90%
    08:00 +16°C° 0.2 mm 5 mps 752 mmHg 86%
    09:00 +17°C° 0.2 mm 4 mps 753 mmHg 82%
    10:00 +18°C° 0.3 mm 4 mps 753 mmHg 79%
    11:00 +18°C° 0.3 mm 4 mps 753 mmHg 77%
    12:00 +17°C° 0.3 mm 5 mps 754 mmHg 75%
    13:00 +19°C° 0.1 mm 5 mps 754 mmHg 70%
    14:00 +19°C° 0.1 mm 6 mps 754 mmHg 65%
    15:00 +19°C° 0.1 mm 6 mps 754 mmHg 60%
    16:00 +17°C° 0.1 mm 5 mps 755 mmHg 66%
    17:00 +17°C° 0.1 mm 4 mps 755 mmHg 71%
    18:00 +14°C° 0.1 mm 4 mps 756 mmHg 77%
    19:00 +14°C° 0 mm 4 mps 756 mmHg 81%
    20:00 +13°C° 0 mm 3 mps 757 mmHg 85%
    21:00 +12°C° 0 mm 3 mps 758 mmHg 89%
    22:00 +12°C° 0 mm 3 mps 758 mmHg 90%
    23:00 +11°C° 0 mm 3 mps 758 mmHg 91%
    Mostrar más